星链-4090 (STARLINK-4090 )

导读

STARLINK-4090(星链-4090)是美国SpaceX星链星座中的v1.5版本卫星,于2022年7月17日发射入轨,属于低轨卫星互联网星座组网卫星。它运行在近地轨道,采用氪工质霍尔推进与激光通信技术,旨在为全球覆盖不足区域提供高速低延迟互联网服务,其成功部署拓展了星链网络的覆盖范围与服务稳定性。

Basic Information
目录编号:
53165
目录名称:
STARLINK-4090
国际标识:
2022-083AK
轨道中心:
EARTH
卫星名称:
星链-4090
卫星全名:
星链-4090 (STARLINK-4090 )
卫星状态:
在轨 (已飞行1431 天)
发射日期:
2022-07-17 UTC
国别 :
美国 (US)
星等 :
--
Orbit Information
数据来源 国际轨道数据 AOE轨道数据
星历时间 2026-06-17T09:07:18+0800
14小时前
查看轨道信息
2026-06-16T00:00:00+0800
1天前
查看轨道信息
半长轴 6917.905km 6917.902km
偏心率 0.0001257 0.0001306
轨道倾角 53.158° 53.162°
近地点辐角 88.013° 90.518°
升交点赤经 77.995° 84.197°
平近点角 272.101° 329.244°
近地点 538.898km 538.861km
远地点 540.638km 540.669km
周期 95.438分钟 95.438分钟
每日圈数 15.088322 15.088332
Detailed Information
固有亮度:
5
最大亮度:
2.5
卫星平台:
Starlink v1.5
覆盖范围:
全球
运营商:
太空探索技术公司
运营商所在国:
美国
制造商(研发单位):
太空探索技术公司
制造商所在国:
美国
使用方式:
暂无
Satellite Introduction
星链(Starlink)计划是由太空探索技术公司(SpaceX)提出的一个巨型低轨卫星互联网星座项目,计划在2019年至2024年间在太空搭建由约1.2万颗卫星组成的“星链”网络,其中1584颗将部署在地球上空550千米处的近地轨道,并从2020年开始工作。该卫星仍在工作。
2D Orbit Map
3D Orbit Map
Orbit Altitude Analysis Chart
Orbit Inclination Analysis Chart
Orbit Comprehensive Analysis Chart
View Comprehensive Chart